Tracking 19192 objects as of 19-Jun-2018
HD Live streaming from Space Station
objects crossing your sky now

AVUM DEB(ADAPTOR)

Track AVUM DEB(ADAPTOR) now!
10-day predictions


NORAD ID: 42902
Int'l Code: 2017-044C
Perigee: 426.7 km
Apogee: 434.6 km
Inclination: 97.2 °
Period: 93.0 minutes
Semi major axis: 6801 km
RCS: Unknown
Launch date: August 2, 2017
Source: European Space Agency (ESA)
Launch site: FRENCH GUIANA (FRGUI)

Note: This is SATELLITE DEBRIS
aabbcc
Your satellite tracking list
Your tracking list is empty




NASA's NSSDC Master Catalog

Two Line Element Set (TLE):
1 42902U 17044C   18169.77983819 +.00011826 +00000-0 +23043-3 0  9993
2 42902 097.1827 245.9448 0005795 237.3349 122.7343 15.47673763049493
Source of the keplerian elements: AFSPC